{"data":{"norad_id":64487,"intl_designator":"2025-133R","name":"STARLINK-34477","alt_names":[],"object_type":"PAYLOAD","status":"ACTIVE","operator":null,"country":"US","launch_date":"2025-06-23","launch_site_code":"AFETR","launch_vehicle":null,"mission":null,"orbit_class":"UNKNOWN","rcs_meters":null,"size_class":null,"mass_kg":null,"dimensions":null,"purposes":["comms"],"wikipedia_slug":null,"has_3d_model":false,"image_url":null,"decayed_at":null,"tle_current":{"epoch":"2026-09-20T05:35:31.863552Z","epoch_age_seconds":154268,"freshness":"FRESH","line1":"1 64487U 25133R   26263.23300768  .00017980  00000+0  54183-3 0  9999","line2":"2 64487  53.1580 291.0541 0001134  89.5354 270.5778 15.34410797 70990","mean_motion":15.34410797,"eccentricity":0.0001134,"inclination_deg":53.158,"raan_deg":291.0541,"arg_perigee_deg":89.5354,"mean_anomaly_deg":270.5778,"bstar":0.00054183,"rev_number":7099,"period_min":93.847097714342,"perigee_km":461.89540179177,"apogee_km":463.44689708006,"semimajor_km":6840.8081494359,"source":"CELESTRAK","updated_at":"2026-09-21T09:00:35.361239Z"}}}